Regional Weather Roundup
Issued by NWS

Home | Current Version | Previous Version | Graphics & Text | Print | Product List | Glossary On
Versions: 1 2 3 4 5 6 7 8 9 10 11 12 13 14 15 16 17 18 19 20 21 22 23 24 25 26 27 28 29 30 31 32 33 34 35 36 37 38 39 40 41 42 43 44 45 46 47 48 49 50
302
ASUS45 KBOI 191910
RWRID

IDAHO REGIONAL WEATHER ROUNDUP
NATIONAL WEATHER SERVICE BOISE ID
1200 PM MST MON FEB 19 2018

NOTE: "FAIR" INDICATES FEW OR NO CLOUDS BELOW 12000 FEET
WITH NO SIGNIFICANT WEATHER AND/OR OBSTRUCTIONS TO VISIBILITY

IDZ012-014-192000-
SOUTHWEST IDAHO


CITY           SKY/WX    TMP DP  RH WIND       PRES   REMARKS
BOISE          MOSUNNY   30  16  56 NW17      29.78R WCI  18
CALDWELL       CLOUDY    29  12  49 W22G30    29.84R WCI  15
MOUNTAIN HOME  MOSUNNY   29  20  68 NW24G31   29.76R WCI  15
$$

IDZ016-017-192000-
SOUTHCENTRAL IDAHO


CITY           SKY/WX    TMP DP  RH WIND       PRES   REMARKS
BURLEY         PTSUNNY   23  17  78 W12G18    29.65R WCI  12
JEROME         MOSUNNY   28  19  69 W21G28    29.67R WCI  15
TWIN FALLS     MOSUNNY   25  19  78 W23       29.66R WCI  10
$$

IDZ019>023-192000-
SOUTHEAST IDAHO


CITY           SKY/WX    TMP DP  RH WIND       PRES   REMARKS
IDAHO FALLS    PTSUNNY   18   1  47 N10       29.62S WCI   6
POCATELLO      PTSUNNY   22   8  55 CALM      29.64R
REXBURG        PTSUNNY   16   0  49 N8        29.60S WCI   5
$$

IDZ006-010-011-018-031-032-192000-
CENTRAL IDAHO MOUNTAINS


CITY           SKY/WX    TMP DP  RH WIND       PRES   REMARKS
MCCALL         CLOUDY    16   9  74 W13       29.65R WCI   2
HAILEY         MOSUNNY   25   9  50 S9        29.59R WCI  15
STANLEY          N/A      7  -1  70 N3        29.58R
SALMON         MOSUNNY   18   2  49 CALM      29.80S
CHALLIS        CLOUDY    22   6  50 NW7       29.64S WCI  13
$$

IDZ002-004-006-007-026-192000-
NORTHERN IDAHO


CITY           SKY/WX    TMP DP  RH WIND       PRES   REMARKS
LEWISTON       CLOUDY    21   9  59 NW10      30.07R WCI  10
LOWELL           N/A     24   9  52 VRB3      30.03S
COEUR D`ALENE  SUNNY     18   3  52 N16       30.02R WCI   3
MULLAN PASS    LGT SNOW   1  -2  87 CALM      29.67R FOG
$$




USA.gov is the U.S. government's official web portal to all federal, state and local government web resources and services.